This demonstration page uses our WeatherBlox Daily Observations layout. Learn more.

Left ArrowRight Arrow

34.74481, -87.66753

Hourly Observations for July 11, 2016

Temp ( °F °C ) Dew Point ( °F °C ) Humidity (%) Winds ( mph kmh ) Pressure ( in mb ) Visibility ( mi km ) Precip ( " mm )
12:53 am 00:53 Mostly Cloudy 73 22.8 71 21.7 94 94 SSE 3 6 30.02 1017 10 16 0.00 0.00
1:53 am 01:53 Mostly Clear 73 22.8 70 21.1 90 90 E 3 6 30.00 1016 8 13 0.00 0.00
2:31 am 02:31 Mostly Clear with Mist and Fog 72 22.2 69 20.6 91 91 Calm 29.97 1015 3 4 0.00 0.00
2:39 am 02:39 Mostly Cloudy with Mist and Fog 71 21.7 69 20.6 94 94 Calm 30.00 1016 1 2 0.00 0.00
2:53 am 02:53 Mostly Cloudy with Mist and Fog 71 21.7 69 20.6 94 94 Calm 29.99 1016 1 1 0.00 0.00
3:20 am 03:20 Mostly Cloudy with Fog 72 22.2 70 21.1 94 94 S 3 6 30.00 1016 0 0 0.00 0.00
3:29 am 03:29 Mostly Cloudy with Mist and Fog 72 22.2 70 21.1 94 94 Calm 30.00 1016 1 1 0.00 0.00
3:41 am 03:41 Cloudy with Mist and Fog 72 22.2 70 21.1 94 94 SSW 3 6 30.00 1016 2 3 0.00 0.00
3:46 am 03:46 Cloudy 72 22.2 70 21.1 94 94 SSW 5 7 30.00 1016 7 11 0.00 0.00
3:53 am 03:53 Mostly Cloudy 72 22.2 70 21.1 94 94 Calm 30.00 1016 9 14 0.00 0.00
4:06 am 04:06 Partly Cloudy with Mist and Fog 72 22.2 70 21.1 94 94 Calm 30.00 1016 6 10 0.00 0.00
4:29 am 04:29 Mostly Cloudy 72 22.2 70 21.1 94 94 Calm 30.00 1016 7 11 0.00 0.00
4:53 am 04:53 Partly Cloudy 71 21.7 69 20.6 94 94 S 5 7 30.01 1016 9 14 0.00 0.00
5:08 am 05:08 Mostly Cloudy 71 21.7 69 20.6 94 94 S 3 6 30.00 1016 9 14 0.00 0.00
5:27 am 05:27 Mostly Cloudy 71 21.7 69 20.6 94 94 Calm 30.03 1017 8 13 0.00 0.00
5:53 am 05:53 Mostly Cloudy 71 21.7 69 20.6 94 94 Calm 30.04 1017 8 13 0.00 0.00
6:16 am 06:16 Partly Cloudy with Mist and Fog 71 21.7 69 20.6 94 94 Calm 30.03 1017 5 8 0.00 0.00
6:53 am 06:53 Mostly Sunny 72 22.2 69 20.6 91 91 W 3 6 30.06 1018 8 13 0.00 0.00
7:48 am 07:48 Mostly Cloudy 73 23 70 21 89 89 Calm 30.06 1018 10 16 0.00 0.00
7:53 am 07:53 Mostly Cloudy 74 23.3 70 21.1 88 88 S 5 7 30.08 1019 10 16 0.00 0.00
8:49 am 08:49 Mostly Cloudy 73 23 70 21 89 89 SW 7 11 30.09 1019 10 16 0.00 0.00
8:53 am 08:53 Mostly Cloudy 75 23.9 69 20.6 82 82 SSW 9 15 30.09 1019 10 16 0.00 0.00
9:11 am 09:11 Mostly Cloudy 76 24.4 69 20.6 79 79 S 8 13 30.09 1019 10 16 0.00 0.00
9:53 am 09:53 Mostly Cloudy 78 25.6 69 20.6 74 74 SSW 6 9 30.09 1019 10 16 0.00 0.00
10:53 am 10:53 Mostly Cloudy 79 26.1 70 21.1 74 74 WSW 5 7 30.09 1019 10 16 0.00 0.00
11:41 am 11:41 Partly Cloudy 81 27.2 69 20.6 67 67 VRB 3 6 30.06 1018 10 16 0.00 0.00
11:53 am 11:53 Partly Cloudy 82 27.8 69 20.6 65 65 SSW 7 11 30.08 1019 10 16 0.00 0.00
12:53 pm 12:53 Mostly Sunny 84 28.9 68 20 59 59 WNW 3 6 30.07 1018 10 16 0.00 0.00
1:53 pm 13:53 Partly Cloudy 86 30 66 18.9 51 51 Calm 30.05 1018 10 16 0.00 0.00
2:53 pm 14:53 Partly Cloudy 87 30.6 66 18.9 50 50 E 5 7 30.02 1017 10 16 0.00 0.00
3:53 pm 15:53 Partly Cloudy 87 30.6 66 18.9 50 50 W 8 13 30.02 1017 10 16 0.00 0.00
4:53 pm 16:53 Mostly Sunny 89 31.7 65 18.3 45 45 WSW 8 13 30.02 1017 10 16 0.00 0.00
5:53 pm 17:53 Sunny 88 31.1 66 18.9 48 48 W 8 13 30.01 1016 10 16 0.00 0.00
6:53 pm 18:53 Mostly Sunny 82 27.8 68 20 63 63 S 9 15 30.01 1016 10 16 0.00 0.00
7:53 pm 19:53 Sunny 79 26.1 66 18.9 65 65 S 6 9 30.03 1017 10 16 0.00 0.00
8:53 pm 20:53 Clear 76 24.4 69 20.6 79 79 S 5 7 30.02 1017 10 16 0.00 0.00
9:53 pm 21:53 Clear 74 23.3 69 20.6 85 85 SSE 3 6 30.04 1017 10 16 0.00 0.00
10:53 pm 22:53 Clear 74 23.3 68 20 82 82 S 3 6 30.04 1017 10 16 0.00 0.00
11:53 pm 23:53 Clear 72 22.2 69 20.6 91 91 ESE 3 6 30.02 1017 10 16 0.00 0.00

Powered by AerisWeather